When you browse on this site, cookies collect data to enhance your experience and personalize the content and advertising you see.
Visit our Privacy Policy to learn more. By continuing to use the site, you agree to this use of cookies and data.
  • In Spain
  • List of Countries
  • For 7 days
  • Water Temperature
  • Satellite Maps
  • Weather Map
  • Weather Widgets
  • user-avatar
    Login

    Hourly Weather Bhopal

    Today, 17 July, Wednesday

    Time Temperature Precipitation Wind Pressure Humidity
    00:00 +30°C° 0 mm 4 mps 711 mmHg 65%
    01:00 +29°C° 0 mm 5 mps 711 mmHg 67%
    02:00 +29°C° 0 mm 5 mps 710 mmHg 69%
    03:00 +28°C° 0 mm 4 mps 710 mmHg 72%
    04:00 +28°C° 0 mm 4 mps 711 mmHg 74%
    05:00 +27°C° 0 mm 4 mps 711 mmHg 78%
    06:00 +28°C° 0 mm 4 mps 711 mmHg 75%
    07:00 +29°C° 0 mm 4 mps 711 mmHg 71%
    08:00 +30°C° 0 mm 5 mps 711 mmHg 68%
    09:00 +33°C° 0 mm 4 mps 711 mmHg 61%
    10:00 +34°C° 0 mm 4 mps 711 mmHg 54%
    11:00 +36°C° 0 mm 3 mps 712 mmHg 46%
    12:00 +36°C° 0 mm 3 mps 711 mmHg 46%
    13:00 +36°C° 0 mm 3 mps 711 mmHg 45%
    14:00 +36°C° 0 mm 3 mps 710 mmHg 45%
    15:00 +36°C° 0 mm 3 mps 710 mmHg 45%
    16:00 +36°C° 0 mm 2 mps 710 mmHg 45%
    17:00 +36°C° 0 mm 2 mps 709 mmHg 45%
    18:00 +35°C° 0 mm 2 mps 710 mmHg 48%
    19:00 +34°C° 0 mm 3 mps 710 mmHg 51%
    20:00 +33°C° 0 mm 3 mps 710 mmHg 54%
    21:00 +33°C° 0 mm 3 mps 710 mmHg 55%
    22:00 +32°C° 0 mm 4 mps 710 mmHg 57%
    23:00 +32°C° 0 mm 4 mps 710 mmHg 58%

    Tomorrow, 18 July, Thursday

    Time Temperature Precipitation Wind Pressure Humidity
    00:00 +30°C° 0 mm 4 mps 710 mmHg 60%
    01:00 +30°C° 0 mm 4 mps 710 mmHg 62%
    02:00 +29°C° 0 mm 5 mps 709 mmHg 64%
    03:00 +29°C° 0 mm 4 mps 709 mmHg 66%
    04:00 +29°C° 0 mm 4 mps 710 mmHg 67%
    05:00 +28°C° 0 mm 4 mps 710 mmHg 69%
    06:00 +29°C° 0 mm 4 mps 710 mmHg 66%
    07:00 +30°C° 0 mm 4 mps 710 mmHg 64%
    08:00 +32°C° 0 mm 5 mps 711 mmHg 62%
    09:00 +33°C° 0 mm 4 mps 711 mmHg 56%
    10:00 +35°C° 0 mm 4 mps 711 mmHg 51%
    11:00 +36°C° 0 mm 3 mps 711 mmHg 46%
    12:00 +37°C° 0 mm 3 mps 710 mmHg 43%
    13:00 +37°C° 0 mm 3 mps 710 mmHg 41%
    14:00 +38°C° 0 mm 3 mps 710 mmHg 38%
    15:00 +38°C° 0 mm 3 mps 709 mmHg 37%
    16:00 +38°C° 0 mm 2 mps 709 mmHg 37%
    17:00 +38°C° 0 mm 2 mps 708 mmHg 36%
    18:00 +36°C° 0 mm 2 mps 708 mmHg 41%
    19:00 +35°C° 0 mm 2 mps 709 mmHg 45%
    20:00 +34°C° 0 mm 2 mps 709 mmHg 49%
    21:00 +33°C° 0.1 mm 3 mps 709 mmHg 50%
    22:00 +33°C° 0.1 mm 3 mps 709 mmHg 51%
    23:00 +31°C° 0.1 mm 3 mps 709 mmHg 51%

    Day after tomorrow, 19 July, Friday

    Time Temperature Precipitation Wind Pressure Humidity
    00:00 +32°C° 0 mm 4 mps 709 mmHg 53%
    01:00 +32°C° 0 mm 4 mps 709 mmHg 54%
    02:00 +32°C° 0 mm 4 mps 709 mmHg 55%
    03:00 +30°C° 0 mm 4 mps 709 mmHg 57%
    04:00 +30°C° 0 mm 4 mps 709 mmHg 59%
    05:00 +29°C° 0 mm 4 mps 709 mmHg 61%
    06:00 +30°C° 0 mm 4 mps 710 mmHg 60%
    07:00 +32°C° 0 mm 4 mps 710 mmHg 59%
    08:00 +33°C° 0 mm 5 mps 710 mmHg 58%
    09:00 +34°C° 0 mm 4 mps 710 mmHg 53%
    10:00 +36°C° 0 mm 4 mps 711 mmHg 48%
    11:00 +37°C° 0 mm 3 mps 711 mmHg 42%
    12:00 +37°C° 0 mm 3 mps 710 mmHg 41%
    13:00 +38°C° 0 mm 2 mps 710 mmHg 40%
    14:00 +38°C° 0 mm 2 mps 709 mmHg 39%
    15:00 +38°C° 0 mm 2 mps 709 mmHg 40%
    16:00 +37°C° 0 mm 2 mps 708 mmHg 41%
    17:00 +37°C° 0 mm 2 mps 708 mmHg 42%
    18:00 +36°C° 0 mm 2 mps 708 mmHg 46%
    19:00 +35°C° 0 mm 2 mps 708 mmHg 50%
    20:00 +32°C° 0 mm 2 mps 708 mmHg 54%
    21:00 +32°C° 0 mm 1 mps 709 mmHg 54%
    22:00 +32°C° 0 mm 1 mps 709 mmHg 55%
    23:00 +32°C° 0 mm 1 mps 709 mmHg 55%

    20 July, Saturday

    Time Temperature Precipitation Wind Pressure Humidity
    00:00 +32°C° 0 mm 1 mps 709 mmHg 56%
    01:00 +31°C° 0 mm 1 mps 708 mmHg 57%
    02:00 +31°C° 0 mm 1 mps 708 mmHg 57%
    03:00 +31°C° 0 mm 2 mps 708 mmHg 58%
    04:00 +31°C° 0 mm 2 mps 708 mmHg 58%
    05:00 +30°C° 0 mm 2 mps 709 mmHg 59%
    06:00 +31°C° 0 mm 3 mps 709 mmHg 55%
    07:00 +34°C° 0 mm 3 mps 710 mmHg 51%
    08:00 +35°C° 0 mm 4 mps 710 mmHg 47%
    09:00 +36°C° 0 mm 4 mps 710 mmHg 43%
    10:00 +38°C° 0 mm 4 mps 710 mmHg 40%
    11:00 +39°C° 0 mm 3 mps 710 mmHg 37%
    12:00 +39°C° 0 mm 3 mps 710 mmHg 36%
    13:00 +39°C° 0 mm 3 mps 709 mmHg 36%
    14:00 +39°C° 0 mm 3 mps 709 mmHg 35%
    15:00 +39°C° 0 mm 3 mps 708 mmHg 35%
    16:00 +39°C° 0 mm 2 mps 708 mmHg 35%
    17:00 +39°C° 0 mm 2 mps 708 mmHg 35%
    18:00 +38°C° 0.1 mm 2 mps 708 mmHg 40%
    19:00 +36°C° 0.1 mm 2 mps 708 mmHg 45%
    20:00 +35°C° 0.1 mm 2 mps 708 mmHg 51%
    21:00 +34°C° 0 mm 2 mps 708 mmHg 53%
    22:00 +33°C° 0 mm 3 mps 708 mmHg 56%
    23:00 +33°C° 0 mm 3 mps 708 mmHg 59%

    21 July, Sunday

    Time Temperature Precipitation Wind Pressure Humidity
    00:00 +31°C° 0 mm 3 mps 708 mmHg 61%
    01:00 +31°C° 0 mm 3 mps 708 mmHg 62%
    02:00 +31°C° 0 mm 2 mps 707 mmHg 64%
    03:00 +30°C° 0.1 mm 2 mps 707 mmHg 65%
    04:00 +30°C° 0.1 mm 2 mps 707 mmHg 67%
    05:00 +29°C° 0.1 mm 2 mps 707 mmHg 69%
    06:00 +31°C° 0 mm 3 mps 708 mmHg 63%
    07:00 +33°C° 0 mm 3 mps 708 mmHg 57%
    08:00 +35°C° 0 mm 3 mps 709 mmHg 52%
    09:00 +36°C° 0 mm 3 mps 709 mmHg 48%
    10:00 +37°C° 0 mm 3 mps 709 mmHg 45%
    11:00 +38°C° 0 mm 3 mps 709 mmHg 41%
    12:00 +39°C° 0 mm 3 mps 709 mmHg 40%
    13:00 +39°C° 0 mm 2 mps 708 mmHg 38%
    14:00 +40°C° 0 mm 2 mps 707 mmHg 36%
    15:00 +40°C° 0 mm 2 mps 707 mmHg 36%
    16:00 +40°C° 0 mm 2 mps 707 mmHg 37%
    17:00 +40°C° 0 mm 2 mps 706 mmHg 37%
    18:00 +38°C° 0.2 mm 2 mps 707 mmHg 40%
    19:00 +37°C° 0.2 mm 2 mps 707 mmHg 43%
    20:00 +36°C° 0.2 mm 2 mps 707 mmHg 47%
    21:00 +35°C° 0 mm 1 mps 707 mmHg 49%
    22:00 +34°C° 0 mm 1 mps 707 mmHg 52%
    23:00 +33°C° 0 mm 1 mps 707 mmHg 55%

    22 July, Monday

    Time Temperature Precipitation Wind Pressure Humidity
    00:00 +34°C° 0.1 mm 2 mps 707 mmHg 58%
    01:00 +32°C° 0.1 mm 2 mps 707 mmHg 61%
    02:00 +31°C° 0.1 mm 3 mps 707 mmHg 64%
    03:00 +31°C° 0 mm 3 mps 707 mmHg 66%
    04:00 +31°C° 0 mm 3 mps 707 mmHg 67%
    05:00 +30°C° 0 mm 3 mps 707 mmHg 68%
    06:00 +32°C° 0.3 mm 4 mps 708 mmHg 66%
    07:00 +32°C° 0.3 mm 5 mps 708 mmHg 64%
    08:00 +33°C° 0.3 mm 5 mps 709 mmHg 63%
    09:00 +34°C° 0.2 mm 5 mps 709 mmHg 57%
    10:00 +36°C° 0.2 mm 5 mps 709 mmHg 52%
    11:00 +39°C° 0.2 mm 5 mps 709 mmHg 47%
    12:00 +39°C° 0.1 mm 5 mps 708 mmHg 45%
    13:00 +40°C° 0.1 mm 4 mps 708 mmHg 43%
    14:00 +40°C° 0.1 mm 4 mps 707 mmHg 41%
    15:00 +37°C° 1.1 mm 5 mps 707 mmHg 49%
    16:00 +35°C° 1.1 mm 5 mps 706 mmHg 58%
    17:00 +33°C° 1.1 mm 5 mps 705 mmHg 67%
    18:00 +32°C° 3.2 mm 5 mps 706 mmHg 71%
    19:00 +29°C° 3.2 mm 4 mps 706 mmHg 75%
    20:00 +28°C° 3.2 mm 4 mps 707 mmHg 79%
    21:00 +29°C° 0.4 mm 3 mps 707 mmHg 77%
    22:00 +29°C° 0.4 mm 3 mps 707 mmHg 74%
    23:00 +30°C° 0.4 mm 2 mps 707 mmHg 72%
    Show more